User: anonymous   Login
Location: Unspecified
(0.0000°N, 0.0000°E)
Time: 06:21:31
(UTC+00:00)
Language:

PAYLOAD C - Orbit

View from above orbital plane
View from above orbital plane
View from above satellite
View from above satellite

Ground track
Ground track

The orbit data is extracted from the following two-line orbital elements,

1 27842U 03031C   18175.57333518 +.00000038 +00000-0 +36955-4 0  9990
2 27842 098.6815 182.7094 0008618 331.1075 028.9625 14.22168322777370
Epoch (UTC): 24 June 2018 13:45:36
Eccentricity: 0.0008618
inclination: 98.6815°
perigee height: 812 km
apogee height: 824 km
right ascension of ascending node: 182.7094°
argument of perigee: 331.1075°
revolutions per day: 14.22168322
mean anomaly at epoch: 28.9625°
orbit number at epoch: 77737

The dashed part of the orbit path shows where the satellite is in the earth's shadow,  

DLR